sat.trackr.live / text

‹ back to catalog

STARLINK-32787

NORAD 62809 · 2025-018D

PAYLOAD ACTIVE UNKNOWN

§ Identity

Operator
Country
US
Launch date
2025-01-24
Launch site
AFWTR
Launch vehicle
Mass (kg)
RCS (m²)

Purposes: comms

External: N2YO · Heavens-Above · Gunter

§ Orbital elements

Epoch: 2026-05-25T04:43:09.371136Z

Period
94.10 min
Inclination
53.1603°
Eccentricity
0.0001388
Mean motion
15.30221007 rev/d
Perigee alt
474.2 km
Apogee alt
476.1 km
Semi-major
6,853.3 km
B*
7.3236e-4
RAAN
314.1087°
Arg perigee
101.9862°
Mean anomaly
258.1295°
Rev number
7,488

§ Raw data

STARLINK-327871 62809U 25018D   26145.19663624  .00021408  00000+0  73236-3 0  99942 62809  53.1603 314.1087 0001388 101.9862 258.1295 15.30221007 74886

JSON: /api/v1/satellites/62809 · /tle

For live sub-satellite position, see the globe view (requires WebGL).

§ Visibility from observer

Set your observer location to see the next 7 days of passes ≥ 10°. The values pass through the URL so the page stays shareable.

No JS? Fill the form by hand. The geolocation button needs JavaScript.